Regional Weather Roundup
Issued by NWS

Home | Current Version | Previous Version | Graphics & Text | Print | Product List | Glossary On
Versions: 1 2 3 4 5 6 7 8 9 10 11 12 13 14 15 16 17 18 19 20 21 22 23 24 25 26 27 28 29 30 31 32 33 34 35 36 37 38 39 40 41 42 43 44 45 46 47 48 49 50
000
ASUS43 KDMX 240301
RWRIA

WEATHER ROUNDUP FOR IOWA
NATIONAL WEATHER SERVICE DES MOINES IA
1000 PM CDT MON OCT 23 2017

NOTE: "FAIR" INDICATES FEW OR NO CLOUDS BELOW 12,000 FEET WITH NO
SIGNIFICANT WEATHER AND/OR OBSTRUCTIONS TO VISIBILITY.

* - THESE STATIONS ARE NOT NWS STATIONS...THUS NOT UNDER NWS
QUALITY CONTROL.  THEY ALSO DO NOT REPORT WEATHER SUCH
AS PRECIPITATION OR FOG.

IAZ001>003-012>014-020>022-031>034-043>046-240400-
   NORTHWEST IOWA

CITY           SKY/WX    TMP DP  RH WIND       PRES   REMARKS
CARROLL *      PTCLDY    48  32  53 NW15G21   29.97S
CHEROKEE *     PTCLDY    49  33  54 NW15G24   30.00R
DENISON *      MOCLDY    50  34  53 NW12      30.02S
LE MARS *      MOCLDY    50  34  53 NW10      30.03S
ORANGE CITY *  MOCLDY    52  36  54 NW16G24   30.01S
SHELDON *      MOCLDY    48  34  57 NW16G26   29.98S
SIOUX CITY     PTCLDY    52  34  50 NW17G23   30.04R
SPENCER        PTCLDY    46  33  60 NW15      29.96S
STORM LAKE *   PTCLDY    46  32  57 NW16G22   29.98S
$$

IAZ055>058-069>071-079>083-090>094-240400-
   SOUTHWEST IOWA

CITY           SKY/WX    TMP DP  RH WIND       PRES   REMARKS
ATLANTIC *     CLOUDY    50  32  50 W9        30.01S
AUDUBON *      CLOUDY    48  34  57 NW9       30.00S
CLARINDA *       N/A     48  32  53 W8        30.06S
COUNCIL BLFS * MOCLDY    52  34  50 NW12G21   30.05S
CRESTON *      CLOUDY    46  34  61 W10       30.00S
HARLAN  *      CLOUDY    50  34  53 NW14      30.05S
LAMONI         CLOUDY    49  35  58 W15       29.98S
RED OAK *      CLOUDY    48  32  53 W7        30.04S
SHENANDOAH *   CLEAR     48  32  53 W7        30.07S
$$

IAZ047>049-059>061-072>074-084-240400-
   CENTRAL IOWA

CITY           SKY/WX    TMP DP  RH WIND       PRES   REMARKS
AMES           CLOUDY    51  34  52 NW15G25   29.90F
ANKENY *       CLOUDY    52  32  46 NW16G25   29.92F
BOONE *        CLOUDY    50  32  50 NW14G22   29.90F
CHARITON *     CLOUDY    50  34  53 W14       29.92F
DES MOINES     CLOUDY    51  33  50 NW15      29.92F
GRINNELL*      CLOUDY    48  36  63 NW16      29.88S
KNOXVILLE *    CLOUDY    50  34  53 W15       29.90S
MARSHALLTOWN   LGT RAIN  48  37  65 NW12      29.86S
NEWTON *       CLOUDY    50  36  57 W15       29.89S
PELLA *        CLOUDY    50  34  53 NW16G24   29.90F
PERRY *        CLOUDY    50  31  48 W13G21    29.94S
$$

IAZ004>006-015-016-023>025-035-036-240400-
   NORTH CENTRAL IOWA

CITY           SKY/WX    TMP DP  RH WIND       PRES   REMARKS
ALGONA *       PTCLDY    46  32  57 NW15G22   29.92S
CLARION *      CLOUDY    48  32  53 NW16      29.89S
ESTHERVILLE    CLEAR     44  33  65 NW10      29.94R
FORT DODGE *   CLOUDY    49  32  52 NW12      29.92S
MASON CITY     CLOUDY    47  34  60 NW15      29.87S
FOREST CITY *  CLOUDY    50  32  50 NW14G23   29.87S
WEBSTER CITY * CLOUDY    50  32  50 NW17      29.89S
IOWA FALLS *   CLOUDY    48  37  64 W10G18    29.88S
$$

IAZ007>011-017>019-026>030-037>042-050>054-066-240400-
   NORTHEAST IOWA

CITY           SKY/WX    TMP DP  RH WIND       PRES   REMARKS
CEDAR RAPIDS   CLOUDY    49  35  58 NW21G33   29.80S
CHARLES CITY * CLOUDY    48  30  49 NW15G26   29.82S
CLINTON *      CLOUDY    48  41  76 NW13      29.75R
DECORAH *      CLOUDY    48  37  66 NW16G29   29.75S
DUBUQUE        CLOUDY    47  41  80 NW14      29.74S
MONTICELLO *   CLOUDY    48  41  76 NW16G23   29.76S
OELWEIN *      CLOUDY    48  34  57 NW22G32   29.79S
WATERLOO       CLOUDY    49  30  48 NW24G32   29.81S
$$

IAZ064-065-067-068-078-240400-
   EAST CENTRAL IOWA

CITY           SKY/WX    TMP DP  RH WIND       PRES   REMARKS
DAVENPORT      PTCLDY    49  41  74 NW18G24   29.78S
IOWA CITY      LGT RAIN  51  38  60 NW20      29.82F
MUSCATINE *    CLOUDY    52  41  66 NW22G29   29.81R
QUAD CITIES    PTCLDY    51  40  65 NW18G28   29.76R
$$

IAZ062-063-075>077-085>089-095>099-240400-
   SOUTHEAST IOWA

CITY           SKY/WX    TMP DP  RH WIND       PRES   REMARKS
BURLINGTON     MOCLDY    51  40  65 NW13      29.82R
FAIRFIELD *    CLOUDY    50  36  57 NW15G25   29.86R
FORT MADISON * PTCLDY    52  41  66 NW14G23   29.85R
KEOKUK *       CLOUDY    54  39  58 NW15G32   29.85R
OSKALOOSA *    CLOUDY    49  37  63 NW15G24   29.88S
OTTUMWA        LGT RAIN  50  36  58 NW17      29.88S
WASHINGTON *   MOCLDY    50  37  62 NW18G25   29.85R
$$

ABBREVIATIONS USED IN REMARKS
   TC - TEMPERATURES IN CELSIUS
  WCI - WIND CHILL INDEX
   HX - HEAT INDEX
  VSB - VISIBILITY
$$





USA.gov is the U.S. government's official web portal to all federal, state and local government web resources and services.